Vertical_Velocity
-5 -3 -3 -3 -5 -4 -2 -2 -2 -1 -2 -1 -1 1 0 -0 -1 -1 -0 -0 2 -3 1 0 -1 -2 -3 -1 0 1 2 -3 -13 4 -2 8 2 0 -4 -12 17 7 4
-4 -4 -4 -3 -2 -6 -2 -3 -2 -1 -0 1 3 -1 2 -0 -6 -2 3 2 -4 1 -2 -4 -2 -2 1 1 -0 -1 -0 -3 -6 -4 3 -5 -9 -7 5 -6 -5 -5 -13
-2 -4 -5 -3 -2 -5 -2 -1 -0 -1 1 1 2 4 -2 1 -3 -3 2 6 -0 1 -0 -1 -2 1 -0 1 2 3 1 -0 -4 -4 0 -0 -1 -8 2 0 -4 -0 5
-3 -4 -4 -2 -1 -4 -1 -1 -1 -0 -1 -2 -1 -0 2 -2 -4 2 -2 -2 -2 -1 1 -1 1 2 3 1 -0 -2 -1 2 2 -2 -1 -2 0 -4 -6 -9 1 -6 2
-3 -3 -3 -1 -1 -2 -2 -1 1 -2 -1 -0 0 2 -1 -1 0 1 0 1 0 -1 -1 -1 -1 -1 -3 1 2 2 1 -1 -1 2 -1 -4 1 -2 -7 7 -16 3 11
-3 -4 -3 -1 0 -1 -1 -0 0 -2 -1 0 -1 1 0 2 3 3 3 2 2 -0 -1 -1 1 -3 -3 -0 -0 0 0 1 1 1 -1 -4 -2 4 8 1 -1 -5 -9
-4 -2 -2 -1 -0 -1 -1 0 1 -0 0 -0 2 2 1 0 1 2 1 -0 -2 -1 4 -1 2 1 -2 1 -1 -1 -4 -3 -2 -4 -1 -1 3 -1 -2 10 -1 -0 2
-3 -1 -2 -1 -1 -1 -1 1 1 1 1 0 1 1 3 1 1 -0 -1 -3 2 2 -2 2 -1 -0 2 1 -2 -1 -1 -1 2 -0 -1 -3 -1 -2 -0 -5 -7 3 -4
-1 -2 -1 -1 -1 -1 -0 -1 0 -0 -1 0 1 1 2 -0 0 -0 -1 1 0 -1 2 2 -2 -1 4 -1 -4 0 -2 -2 -1 -5 -3 -4 -5 -6 -4 -2 -1 -0 1
-2 -1 -1 -2 -1 -1 1 1 0 -0 -1 -1 1 1 -0 -1 1 3 -1 -1 3 1 -0 -2 1 -0 2 2 0 6 7 1 1 -3 -2 -4 -4 -6 -7 -6 -6 -5 -2
-1 -1 -1 -2 1 0 -0 -0 0 0 -1 -0 0 -1 -1 -1 1 3 -0 1 -0 -0 3 -2 0 -3 2 3 2 -0 1 0 -2 -2 1 2 2 -0 -1 -1 -3 -4 -2
-1 -0 -0 -0 1 -1 0 -0 1 1 -1 -1 -0 -1 -1 -0 -0 -1 -1 -1 1 2 -3 0 1 1 2 2 -0 -0 -2 -1 -3 -0 -0 -0 1 1 2 2 1 -1 -5
-0 0 -0 -0 2 -0 1 0 -0 -0 -0 -1 -1 -1 -0 -0 -1 -2 -1 -1 -2 -0 1 -0 -2 -3 -2 -2 1 1 2 3 0 0 1 0 -1 -1 0 0 -0 -0 -1
1 0 -0 1 0 -0 1 -1 -1 -1 -1 -1 0 1 1 1 0 1 1 1 2 1 1 0 1 2 2 1 -1 -0 -1 -3 -3 -3 -3 -3 -5 -3 1 1 4 4 -0
0 -0 -0 1 -1 -0 0 -0 -0 -0 -1 -1 -0 -2 -1 1 3 3 1 1 1 2 1 1 1 1 -1 -1 -2 -3 -2 -1 -0 -1 -1 1 1 2 -2 -4 -5 -2 -4
-1 0 0 -1 2 -2 -2 -0 0 -0 -1 -1 -0 2 1 -1 -3 -3 -2 -1 -2 -0 0 -0 -0 -1 -2 -2 -2 -1 -1 -1 -3 -4 -4 -4 -5 -6 -5 -4 -5 -5 -3
0 1 -0 -1 -2 -4 -1 3 -0 -2 -3 -1 -0 -0 -1 -1 -1 -0 -0 -1 -2 -1 -1 -3 -4 -4 -4 -5 -4 -6 -5 -6 -5 -5 -5 -6 -6 -6 -4 -3 -2 -4 -2
-0 0 -0 -0 0 0 1 -2 -2 -1 1 -0 -4 -3 -1 -1 -0 0 0 -1 -1 -1 -2 -3 -3 -3 -3 -4 -4 -3 -4 -4 -5 -5 -4 -5 -5 -6 -5 -6 -5 -5 -3
1 1 1 0 0 0 -1 -1 -0 0 -1 -2 0 0 0 -0 -1 -1 -3 -2 -2 -3 -3 -3 -3 -3 -3 -4 -3 -3 -4 -4 -4 -4 -3 -4 -4 -7 -6 -5 -3 -4 -5
0 0 1 0 -0 -1 0 1 0 -0 -0 1 -1 -1 -2 -2 -1 -2 -2 -3 -3 -3 -3 -3 -3 -3 -3 -3 -3 -3 -3 -4 -4 -4 -3 -4 -5 -8 -7 -5 -5 -6 -5
1 1 0 0 -0 -0 -1 -1 -1 -1 -1 -0 -2 -0 -1 -1 -2 -2 -2 -2 -2 -3 -3 -3 -3 -2 -2 -3 -3 -3 -3 -3 -3 -4 -7 -7 -6 -4 -2 -2 -4 -4 -3
1 1 0 0 -1 -1 -1 -1 -2 -1 -1 -2 -1 -1 -2 -2 -2 -1 -1 -2 -2 -3 -4 -4 -3 -3 -3 -3 -3 -3 -3 -4 -5 -4 -3 -3 -3 -3 -4 -4 -4 -4 -4
1 0 1 0 -1 -1 -1 -1 -1 -1 -1 -1 -2 -2 -3 -2 -2 -2 -2 -2 -3 -3 -3 -3 -2 -2 -4 -4 -4 -5 -6 -5 -6 -7 -5 -4 -4 -4 -4 -4 -5 -5 -4
1 0 0 0 0 -0 -1 -1 -2 -1 -2 -2 -2 -2 -2 -2 -2 -1 -3 -3 -2 -3 -4 -3 -3 -3 -3 -3 -3 -4 -5 -4 -5 -4 -5 -4 -4 -4 -4 -3 -3 -3 -5
1 0 1 -0 -0 -0 -1 -1 -1 -1 -1 -2 -1 -2 -2 -2 -1 -2 -2 -2 -3 -3 -2 -2 -3 -3 -4 -4 -4 -4 -3 -4 -5 -4 -4 -4 -4 -4 -4 -4 -4 -3 -3
1 1 -0 0 -1 -0 -1 -1 -1 -1 -1 -1 -1 -1 -2 -1 -2 -1 -1 -1 -2 -2 -2 -2 -2 -2 -3 -2 -3 -4 -4 -3 -2 -4 -4 -4 -5 -3 -3 -3 -2 -3 -3
Height
3045 3042 3039 3036 3033 3030 3026 3023 3020 3017 3015 3012 3010 3007 3006 3004 3002 3000 2996 2994 2994 2994 2993 2993 2991 2990 2989 2989 2988 2988 2988 2988 2986 2987 2991 2997 3000 3000 3002 3008 3008 3012 3014
3040 3038 3034 3031 3029 3027 3024 3021 3018 3015 3013 3011 3009 3006 3005 3004 3001 2998 2994 2993 2991 2990 2989 2987 2986 2985 2983 2982 2981 2980 2981 2980 2979 2979 2981 2986 2989 2991 2994 2997 2999 3002 3005
3035 3033 3031 3027 3026 3023 3021 3019 3016 3014 3012 3009 3007 3006 3004 3004 3002 2998 2996 2992 2990 2988 2987 2985 2983 2981 2979 2978 2977 2976 2975 2974 2974 2973 2973 2977 2980 2982 2985 2987 2989 2992 2994
3031 3029 3026 3024 3022 3019 3017 3016 3014 3012 3010 3008 3007 3005 3003 3001 2999 2996 2995 2990 2989 2987 2985 2984 2981 2979 2977 2974 2972 2971 2970 2969 2968 2968 2968 2969 2971 2973 2974 2976 2980 2981 2982
3026 3024 3022 3020 3018 3016 3014 3013 3011 3010 3010 3008 3006 3003 3001 2999 2995 2993 2991 2989 2988 2986 2983 2981 2979 2976 2973 2971 2970 2969 2966 2964 2962 2961 2961 2962 2962 2964 2966 2966 2969 2971 2975
3022 3020 3018 3017 3015 3014 3012 3011 3010 3010 3008 3006 3004 3002 3000 2997 2994 2991 2989 2988 2986 2983 2981 2978 2976 2973 2970 2968 2966 2965 2964 2962 2959 2956 2954 2955 2955 2954 2955 2956 2956 2956 2958
3018 3016 3015 3014 3013 3012 3011 3010 3009 3008 3006 3004 3001 2999 2997 2995 2993 2990 2988 2987 2984 2982 2979 2977 2974 2972 2969 2966 2963 2961 2959 2957 2955 2953 2950 2949 2948 2947 2947 2947 2946 2945 2944
3014 3013 3012 3012 3011 3011 3010 3009 3007 3006 3004 3002 3000 2998 2996 2994 2991 2989 2987 2984 2982 2980 2978 2976 2973 2970 2968 2966 2962 2959 2957 2955 2952 2950 2948 2945 2944 2943 2942 2939 2938 2937 2936
3011 3011 3011 3010 3010 3009 3008 3007 3006 3004 3002 3000 2998 2996 2994 2992 2990 2988 2985 2982 2980 2977 2975 2973 2970 2967 2966 2963 2961 2957 2954 2951 2948 2945 2943 2941 2938 2936 2934 2934 2933 2931 2931
3008 3009 3009 3009 3008 3007 3006 3005 3004 3002 3001 2999 2997 2995 2993 2991 2989 2986 2984 2981 2978 2975 2973 2970 2967 2965 2962 2960 2958 2955 2952 2950 2947 2943 2940 2937 2934 2930 2928 2925 2923 2920 2920
3005 3006 3007 3007 3006 3005 3004 3004 3002 3001 2999 2997 2995 2992 2990 2988 2986 2984 2981 2979 2976 2973 2970 2968 2965 2963 2959 2956 2953 2949 2946 2943 2940 2937 2934 2931 2927 2925 2921 2918 2914 2911 2908
3003 3004 3004 3005 3004 3004 3003 3002 3001 2999 2997 2995 2993 2991 2989 2987 2985 2982 2979 2976 2973 2971 2968 2965 2961 2958 2954 2951 2947 2943 2940 2937 2934 2931 2928 2925 2922 2920 2916 2911 2907 2903 2899
3001 3002 3002 3003 3003 3002 3001 3001 2999 2997 2995 2994 2992 2990 2988 2985 2982 2980 2977 2974 2971 2967 2964 2960 2957 2954 2951 2948 2944 2940 2937 2933 2929 2926 2921 2917 2912 2909 2905 2903 2900 2897 2893
2998 2999 3000 3001 3001 3000 2999 2998 2997 2995 2993 2992 2990 2989 2986 2984 2981 2978 2974 2971 2968 2965 2962 2959 2956 2952 2948 2943 2940 2937 2932 2926 2922 2919 2915 2911 2907 2903 2898 2894 2891 2890 2888
2995 2996 2998 2999 2998 2998 2997 2996 2994 2993 2991 2990 2989 2987 2984 2980 2977 2973 2970 2967 2963 2960 2956 2953 2949 2945 2941 2938 2933 2929 2925 2920 2915 2910 2906 2902 2898 2895 2891 2886 2882 2879 2875
2992 2994 2995 2996 2996 2996 2994 2993 2992 2991 2989 2987 2985 2982 2978 2974 2972 2971 2969 2965 2960 2957 2953 2950 2946 2942 2938 2934 2929 2924 2920 2915 2910 2905 2900 2895 2890 2886 2882 2878 2873 2868 2864
2990 2992 2993 2993 2993 2992 2992 2991 2989 2987 2986 2984 2982 2979 2976 2974 2971 2969 2965 2960 2956 2953 2949 2945 2940 2935 2930 2925 2920 2915 2910 2905 2900 2896 2892 2887 2882 2877 2872 2867 2862 2858 2856
2988 2989 2990 2991 2990 2990 2988 2986 2985 2984 2983 2982 2979 2976 2974 2971 2968 2964 2960 2956 2953 2948 2943 2938 2933 2928 2923 2919 2914 2909 2904 2899 2894 2888 2883 2878 2873 2868 2864 2859 2855 2849 2844
2985 2987 2988 2988 2988 2987 2985 2984 2982 2980 2979 2977 2976 2972 2969 2965 2962 2958 2955 2952 2947 2943 2937 2932 2928 2923 2919 2914 2909 2904 2898 2893 2888 2882 2877 2872 2866 2860 2855 2851 2845 2841 2836
2983 2984 2985 2985 2985 2984 2983 2980 2978 2976 2974 2973 2970 2967 2964 2961 2957 2954 2951 2946 2941 2936 2931 2927 2922 2918 2914 2909 2904 2899 2894 2889 2884 2878 2872 2866 2860 2854 2847 2842 2837 2831 2827
2980 2981 2981 2982 2982 2981 2979 2976 2975 2972 2970 2968 2966 2963 2960 2956 2952 2948 2944 2940 2936 2931 2927 2922 2918 2913 2908 2903 2898 2893 2888 2883 2877 2873 2867 2861 2854 2848 2841 2835 2829 2824 2819
2977 2978 2978 2978 2977 2976 2975 2973 2971 2969 2966 2964 2961 2958 2954 2951 2948 2944 2940 2936 2932 2927 2923 2918 2914 2909 2903 2898 2893 2888 2883 2878 2872 2866 2860 2853 2847 2841 2835 2829 2823 2817 2812
2973 2974 2974 2974 2973 2972 2971 2969 2967 2964 2962 2959 2956 2953 2950 2947 2943 2939 2935 2932 2928 2923 2918 2914 2909 2904 2899 2894 2888 2883 2878 2872 2865 2858 2853 2847 2840 2833 2827 2821 2814 2809 2804
2970 2970 2970 2970 2969 2968 2966 2964 2962 2959 2957 2954 2951 2948 2945 2942 2938 2934 2931 2927 2922 2918 2914 2910 2904 2899 2894 2889 2884 2879 2873 2866 2860 2854 2847 2840 2833 2827 2820 2814 2808 2802 2797
2966 2966 2966 2966 2965 2963 2961 2958 2956 2954 2952 2949 2945 2942 2939 2936 2933 2929 2926 2922 2918 2914 2909 2904 2899 2894 2890 2885 2880 2874 2868 2861 2854 2847 2841 2834 2827 2820 2813 2807 2802 2796 2791
2962 2962 2962 2961 2960 2958 2956 2953 2951 2948 2946 2943 2940 2937 2934 2931 2927 2924 2920 2917 2913 2909 2904 2899 2894 2890 2885 2880 2875 2869 2862 2856 2849 2842 2835 2828 2821 2814 2807 2801 2796 2790 2786